Notices

What's New in latest Release from April 7th, 2021:

- Updated Glossary, including Speed of Maximum Gust, and Total Hourly Precipitation

- Updated national and regional climate services offices contacts and prices information

- Addition of station inventory lists for 1981-2010, 1971-2000, and 1961-1990 Normals.

If you haven't already, please take our survey and provide feedback about our website: https://eccc.sondage-survey.ca/f/LanguageSelection.aspx?s=442ca660-fcf1-47c0-95a9-59707d6fd709

Hourly Data Report for August 21, 2020

TORONTO CITY
ONTARIO
Current Station Operator: ECCC - MSC

43°40'00.000" N
79°24'00.000" W
112.50 m
6158355
71508
XTO

Download Data

Hourly Data (August 2020)
Hourly Data Report for August 21, 2020
TIME
LST
Temp Definition
°C
Dew Point Definition
°C
Rel Hum Definition
%
Precip. Amount Definition
mm

Wind Dir Definition
10's deg

Wind Spd Definition
km/h
Visibility Definition
km
Stn Press Definition
kPa
Hmdx Definition


Wind Chill Definition


Weather Definition


00:00 20.5 11.2 55 0.0       99.93     LegendNANA
01:00 19.2 11.2 60 0.0       99.89     LegendNANA
02:00 20.3 9.7 51 0.0       99.88     LegendNANA
03:00 19.4 9.9 54 0.0       99.86     LegendNANA
04:00 18.4 11.0 62 0.0       99.87     LegendNANA
05:00 19.3 11.5 61 0.0       99.89     LegendNANA
06:00 19.5 12.4 64 0.0       99.91     LegendNANA
07:00 20.3 13.0 63 0.0       99.96     LegendNANA
08:00 21.7 14.1 62 0.0       99.97 25   LegendNANA
09:00 22.9 15.3 62 0.0       99.98 27   LegendNANA
10:00 23.9 16.0 61 0.0       99.99 29   LegendNANA
11:00 25.7 15.8 54 0.0       99.98 30   LegendNANA
12:00 25.3 15.6 55 0.3       99.94 30   LegendNANA
13:00 26.6 14.8 48 0.0       99.91 30   LegendNANA
14:00 26.0 15.1 51 0.3       99.84 30   LegendNANA
15:00 25.2 16.2 58 0.0       99.81 30   LegendNANA
16:00 27.0 16.1 51 0.0       99.76 32   LegendNANA
17:00 29.7 15.0 41 0.0       99.75 34   LegendNANA
18:00 26.6 15.9 52 0.3       99.75 31   LegendNANA
19:00 27.6 14.7 45 0.0       99.80 31   LegendNANA
20:00 25.2 15.8 56 0.0       99.88 30   LegendNANA
21:00 23.9 16.7 64 0.0       99.91 29   LegendNANA
22:00 23.0 17.1 69 0.0       99.90 28   LegendNANA
23:00 22.4 17.3 73 0.0       99.88 28   LegendNANA

Notes on Data Quality.

Legend

  • E = Estimated
  • M = Missing
  • NA = Not Available*
  • [empty] = Indicates an unobserved value
Date modified: